Weather History for KRBG - June, 2013

Change the Weather History Date:

Friday, June 28, 2013

  Actual Average Record
Temperature  
Mean Temperature 78 °F 67 °F  
Max Temperature 95 °F 80 °F 102 °F (2003)
Min Temperature 61 °F 54 °F 40 °F (1954)
Degree Days  
Heating Degree Days 0 1  
Month to date heating degree days 35 80  
Since 1 June heating degree days 35 80  
Since 1 July heating degree days 3631 4063  
Cooling Degree Days 13 3  
Month to date cooling degree days 82 41  
Year to date cooling degree days 116 61  
Since 1 June cooling degree days 82 41  
Growing Degree Days 27 (Base 50)    
Moisture  
Dew Point 57 °F    
Average Humidity 59    
Maximum Humidity 90    
Minimum Humidity 27    
Precipitation  
Precipitation 0.00 in 0.01 in 1.15 in (1952)
Month to date precipitation 0.29 1.11  
Year to date precipitation 7.88 18.74  
Sea Level Pressure  
Sea Level Pressure 30.09 in    
Wind  
Wind Speed 4 mph (NNW)    
Max Wind Speed 14 mph    
Max Gust Speed 18 mph    
Visibility 10 miles    
Events      
T = Trace of Precipitation, MM = Missing Value Source: NWS Daily Summary

Daily Weather History Graph

Daily Weather History Graph

Search for Another Location

Airport or City:

Trip Planner

Search our weather history database for the weather conditions in past years. The results will help you decide how hot, cold, wet, or windy it might be!

Date:

Astronomy

Jun. 28, 2013 Rise Set
Actual Time 5:35 AM PDT 8:57 PM PDT
Civil Twilight 5:00 AM PDT 9:32 PM PDT
Nautical Twilight 4:14 AM PDT 10:19 PM PDT
Astronomical Twilight 3:16 AM PDT 11:16 PM PDT
Moon No Moon Rise 12:00 PM PDT (6/28)
Length of Visible Light 16h 32m
Length of Day
15h 21m
Waning Gibbous, 65% of the Moon is Illuminated
Jun 28
Waning Gibbous
Jun 29
Last Quarter
Jul 8
New
Jul 15
First Quarter
Jul 22
Full

Hourly Weather History & Observations

Time (PDT) Temp. Heat Index Dew Point Humidity Pressure Visibility Wind Dir Wind Speed Gust Speed Precip Events Conditions
12:53 AM 68.0 °F - 59.0 °F 73% 30.15 in 10.0 mi Calm Calm - N/A   Clear
1:53 AM 64.9 °F - 59.0 °F 81% 30.14 in 10.0 mi Calm Calm - N/A   Clear
2:53 AM 63.0 °F - 59.0 °F 87% 30.14 in 10.0 mi Calm Calm - N/A   Clear
3:53 AM 63.0 °F - 59.0 °F 87% 30.14 in 10.0 mi Calm Calm - N/A   Clear
4:53 AM 62.1 °F - 57.9 °F 86% 30.14 in 10.0 mi Calm Calm - N/A   Clear
5:53 AM 61.0 °F - 57.9 °F 90% 30.14 in 10.0 mi Calm Calm - N/A   Clear
6:53 AM 63.0 °F - 57.9 °F 84% 30.13 in 10.0 mi Calm Calm - N/A   Clear
7:53 AM 66.9 °F - 60.1 °F 79% 30.14 in 10.0 mi Calm Calm - N/A   Clear
8:53 AM 71.1 °F - 60.1 °F 68% 30.13 in 10.0 mi Calm Calm - N/A   Clear
9:53 AM 75.0 °F - 61.0 °F 62% 30.12 in 10.0 mi Calm Calm - N/A   Clear
10:53 AM 79.0 °F - 62.1 °F 56% 30.10 in 10.0 mi Calm Calm - N/A   Clear
11:53 AM 84.9 °F 85.4 °F 62.1 °F 46% 30.09 in 10.0 mi Calm Calm - N/A   Clear
12:53 PM 90.0 °F 88.8 °F 57.9 °F 34% 30.06 in 10.0 mi NW 6.9 mph - N/A   Clear
1:53 PM 90.0 °F 89.1 °F 59.0 °F 35% 30.05 in 10.0 mi West 6.9 mph - N/A   Clear
2:53 PM 93.9 °F 92.6 °F 57.0 °F 29% 30.03 in 10.0 mi North 10.4 mph 16.1 mph N/A   Clear
3:53 PM 93.9 °F 92.0 °F 55.0 °F 27% 30.02 in 10.0 mi North 10.4 mph - N/A   Clear
4:53 PM 93.9 °F 92.0 °F 55.0 °F 27% 30.01 in 10.0 mi North 11.5 mph - N/A   Clear
5:53 PM 91.9 °F 90.3 °F 55.9 °F 30% 30.01 in 10.0 mi NNW 11.5 mph - N/A   Clear
6:53 PM 89.1 °F - 51.1 °F 27% 30.02 in 10.0 mi NW 9.2 mph - N/A   Clear
7:53 PM 86.0 °F - 52.0 °F 31% 30.04 in 10.0 mi NW 8.1 mph 16.1 mph N/A   Clear
8:53 PM 82.0 °F 81.4 °F 55.0 °F 39% 30.05 in 10.0 mi NW 10.4 mph 16.1 mph N/A   Clear
9:53 PM 79.0 °F - 55.0 °F 44% 30.08 in 10.0 mi North 5.8 mph - N/A   Clear
10:53 PM 75.9 °F - 55.0 °F 48% 30.09 in 10.0 mi North 5.8 mph - N/A   Clear
11:53 PM 73.0 °F - 55.0 °F 53% 30.10 in 10.0 mi North 3.5 mph - N/A   Clear